NOAA 16 DEB

Satellite information

Favourite Embed

Satellite Type and Status

DEBRISIN ORBIT

Key statistics

Satellite NOAA 16 DEB at a glance.

Uptime

9115

Days in orbit

Revolutions

≈ 14.0

Per day

Orbit

SSO

Sun Synchronous Orbit

Inclination

98.9

Latest

Satellite identification and parameters

Extended collection of information and parameters for NOAA 16 DEB.

Object identification

Identified? True

Debris? True

Object name: NOAA 16 DEB

International designator: 2000-055BG

Object number (NORAD): 41097

Object ID (CCSDS): 41097

Country: UNITED STATES OF AMERICA (US)

Current information (Y/N): Y

RCS size: SMALL

Orbital parameters

Period: 102.86 minutes

Inclination: 98.9031 deg

SMA: 7272.046 km

Apoapsis: 957.854 km

Periapsis: 829.968 km

RAAN: 208.9764 deg

Eccentricy: 0.00879299

Argument of periapsis: 237.0133 deg

Mean anomaly: 122.2558 deg

Mean motion: 13.99967015 rev/day

Mean motion (dot): 0.00004015 rev/day2

B* drag term: 0.0026687378 1/REarth

Two-line elements (TLE)

Creation date: Sept. 4, 2025, 4:29 a.m.

Reference frame: TEME

Reference center: EARTH

Epoch: Sept. 3, 2025, 8:04 a.m. UTC

TLE line 0: 0 NOAA 16 DEB

TLE line 1: 1 41097U 00055BG 25246.33641434 .00004015 00000-0 26687-2 0 9999

TLE line 2: 2 41097 98.9031 208.9764 0087930 237.0133 122.2558 13.99967015495873

Live tracking on map

Real-time ground track for satellite NOAA 16 DEB.

In-orbit conjunctions

A list of the most updated potential collisions computed for object NOAA 16 DEB.

Target Orbit TCA Probability of collision Miss distance Type
COSMOS 1275 DEB LEO 2025-03-30 02:46:33 0.0001623028 121.0 (m) DEBRIS
CZ-6A DEB LEO 2025-02-06 10:27:12 0.0001562199 853.0 (m) DEBRIS
SL-8 R/B LEO 2024-12-01 16:13:47 0.001869237 63.0 (m) ROCKET BODY

Associated space launch

The NOAA K, L and M POES satellites begin the fifth generation of improved environmental monitoring in support of NOAA missions. The instrument payload has significant improvements and additions/deletions. The instrument changes have effected the spacecraft subsystems and data formats.

NOAA 16 DEB was lifted into orbit during the mission ‘Titan II SLV | NOAA 16’, on board a Titan II SLV space rocket.

The launch took place on Sept. 21, 2000, 10:22 a.m. from Space Launch Complex 4W.

For more information about the launch, click the button.

Launch to space Titan II SLV | NOAA 16
Titan II SLV | NOAA 16

Agency: N/A

Status: Launch Successful

Launch date: Sept. 21, 2000, 10:22 a.m. UTC

Rocket: Titan II SLV

Launch pad: Space Launch Complex 4W

Location: Vandenberg SFB, CA, USA

...

Latest news about this satellite

There are no fresh news available about this satellite. Check back as we update our databases every day.


Newsletter sign-up

Weekly statistics, charts and insights to help you stay on top of the space industry.